Mount Pleasant, IA

6:31 AM CST on December 11, 2016 (GMT -0600)
Mount Pleasant Municipal

Weather History for KMPZ - January, 2014

Change the Weather History Date:

Wednesday, January 1, 2014

  Actual Average Record
Temperature  
Mean Temperature 13 °F -  
Max Temperature 15 °F 30 °F 57 °F (2004)
Min Temperature 11 °F 14 °F -16 °F (1968)
Degree Days  
Heating Degree Days 52    
Moisture  
Dew Point 8 °F    
Average Humidity 80    
Maximum Humidity 84    
Minimum Humidity 73    
Precipitation  
Precipitation 0.00 in - - ()
Sea Level Pressure  
Sea Level Pressure 30.20 in    
Wind  
Wind Speed 12 mph (NNE)    
Max Wind Speed 17 mph    
Max Gust Speed 24 mph    
Visibility 7 miles    
Events Snow    
Averages and records for this station are not official NWS values.
T = Trace of Precipitation, MM = Missing Value Source: NWS Daily Summary

Daily Weather History Graph

Daily Weather History Graph

Search for Another Location

Airport or City:

Trip Planner

Search our weather history database for the weather conditions in past years. The results will help you decide how hot, cold, wet, or windy it might be!

Date:

Astronomy

Jan. 01, 2014 Rise Set
Actual Time 7:30 AM CST 4:48 PM CST
Civil Twilight 6:59 AM CST 5:19 PM CST
Nautical Twilight 6:25 AM CST 5:54 PM CST
Astronomical Twilight 5:52 AM CST 6:27 PM CST
Moon 7:20 AM CST (1/1) 5:34 PM CST (1/1)
Length of Visible Light 10h 19m
Length of Day
9h 17m
New Moon, 0% of the Moon is Illuminated
Jan 1
New Moon
Jan 7
First Quarter
Jan 15
Full
Jan 23
Last Quarter
Jan 30
New

Hourly Weather History & Observations

Time (CST) Temp. Windchill Dew Point Humidity Pressure Visibility Wind Dir Wind Speed Gust Speed Precip Events Conditions
12:15 AM 14.5 °F 1.1 °F 8.6 °F 77% 30.20 in 10.0 mi NE 11.5 mph - N/A   Scattered Clouds
12:35 AM 14.7 °F 1.4 °F 8.8 °F 77% 30.19 in 10.0 mi NE 11.5 mph - N/A   Scattered Clouds
12:55 AM 14.9 °F 1.6 °F 9.0 °F 77% 30.19 in 10.0 mi NE 11.5 mph 17.3 mph N/A   Scattered Clouds
1:15 AM 14.9 °F 1.6 °F 9.0 °F 77% 30.19 in 10.0 mi NE 11.5 mph - N/A   Clear
1:35 AM 14.5 °F 1.9 °F 8.8 °F 78% 30.19 in 10.0 mi NE 10.4 mph - N/A   Clear
1:55 AM 14.2 °F 1.4 °F 8.4 °F 78% 30.18 in 10.0 mi NE 10.4 mph - N/A   Clear
2:15 AM 13.6 °F 0.7 °F 7.9 °F 78% 30.18 in 10.0 mi NE 10.4 mph - N/A   Scattered Clouds
2:35 AM 13.1 °F -0.7 °F 7.7 °F 79% 30.19 in 10.0 mi NE 11.5 mph - N/A   Clear
2:55 AM 12.2 °F -0.2 °F 7.2 °F 80% 30.19 in 10.0 mi NE 9.2 mph - N/A   Clear
3:15 AM 12.2 °F 0.7 °F 6.8 °F 79% 30.19 in 10.0 mi NE 8.1 mph - N/A   Clear
3:35 AM 11.8 °F -0.7 °F 6.8 °F 80% 30.18 in 10.0 mi NNE 9.2 mph - N/A   Clear
3:55 AM 11.7 °F -1.7 °F 6.6 °F 80% 30.18 in 10.0 mi NE 10.4 mph - N/A   Clear
4:15 AM 11.3 °F -2.2 °F 6.4 °F 81% 30.17 in 10.0 mi NE 10.4 mph - N/A   Clear
4:35 AM 11.3 °F -2.2 °F 6.4 °F 81% 30.18 in 10.0 mi NE 10.4 mph - N/A   Clear
4:55 AM 11.7 °F -2.5 °F 6.6 °F 80% 30.18 in 10.0 mi NE 11.5 mph - N/A   Clear
5:15 AM 11.7 °F -1.7 °F 6.6 °F 80% 30.18 in 10.0 mi NE 10.4 mph - N/A   Clear
5:35 AM 11.8 °F -2.3 °F 6.8 °F 80% 30.18 in 10.0 mi NE 11.5 mph 17.3 mph N/A   Clear
5:55 AM 11.8 °F -2.3 °F 6.8 °F 80% 30.18 in 10.0 mi NE 11.5 mph - N/A   Scattered Clouds
6:15 AM 11.8 °F -2.3 °F 6.8 °F 80% 30.18 in 10.0 mi NE 11.5 mph - N/A   Overcast
6:35 AM 12.0 °F -0.4 °F 7.2 °F 81% 30.19 in 10.0 mi NE 9.2 mph - N/A   Overcast
6:55 AM 12.2 °F -2.5 °F 7.3 °F 81% 30.19 in 7.0 mi NNE 12.7 mph - N/A   Overcast
7:15 AM 12.2 °F -3.1 °F 7.5 °F 82% 30.20 in 10.0 mi NE 13.8 mph - N/A Snow Light Snow
7:35 AM 12.6 °F -2.7 °F 7.7 °F 81% 30.20 in 10.0 mi NNE 13.8 mph - N/A   Overcast
7:55 AM 12.7 °F -2.5 °F 7.7 °F 80% 30.21 in 10.0 mi NNE 13.8 mph - N/A   Overcast
8:15 AM 13.1 °F -2.0 °F 7.9 °F 80% 30.21 in 5.0 mi NNE 13.8 mph - N/A Snow Light Snow
8:35 AM 13.1 °F -1.4 °F 8.4 °F 82% 30.22 in 3.0 mi NNE 12.7 mph - N/A Snow Light Snow
8:55 AM 13.1 °F -1.4 °F 8.2 °F 81% 30.22 in 3.0 mi NNE 12.7 mph 17.3 mph N/A Snow Light Snow
9:15 AM 13.1 °F -2.0 °F 8.2 °F 81% 30.21 in 2.5 mi NNE 13.8 mph - N/A Snow Light Snow
9:35 AM 13.1 °F -2.0 °F 7.9 °F 80% 30.22 in 3.0 mi NNE 13.8 mph - N/A Snow Light Snow
9:55 AM 13.1 °F -0.7 °F 8.1 °F 80% 30.24 in 4.0 mi NNE 11.5 mph - N/A Snow Light Snow
10:15 AM 12.7 °F -3.0 °F 7.5 °F 80% 30.23 in 3.0 mi NNE 15.0 mph - N/A Snow Light Snow
10:35 AM 12.4 °F -2.9 °F 7.2 °F 80% 30.23 in 5.0 mi NNE 13.8 mph - N/A Snow Light Snow
10:55 AM 12.2 °F -1.8 °F 6.8 °F 79% 30.23 in 5.0 mi NNE 11.5 mph - N/A Snow Light Snow
11:15 AM 12.2 °F -3.1 °F 7.2 °F 80% 30.22 in 5.0 mi North 13.8 mph - N/A Snow Light Snow
11:35 AM 12.4 °F -2.9 °F 7.3 °F 80% 30.21 in 3.0 mi NNE 13.8 mph - N/A Snow Light Snow
11:55 AM 12.2 °F -2.5 °F 7.2 °F 80% 30.20 in 1.0 mi North 12.7 mph - N/A Snow Light Snow
12:15 PM 12.6 °F -3.3 °F 7.3 °F 80% 30.20 in 2.0 mi NNE 15.0 mph - N/A Snow Light Snow
12:35 PM 12.9 °F -3.4 °F 7.3 °F 78% 30.19 in 3.0 mi NNE 16.1 mph - N/A Snow Light Snow
12:55 PM 12.9 °F -2.2 °F 7.5 °F 79% 30.19 in 3.0 mi NNE 13.8 mph - N/A Snow Light Snow
1:15 PM 12.9 °F -2.8 °F 7.3 °F 78% 30.18 in 2.5 mi NNE 15.0 mph - N/A Snow Light Snow
1:35 PM 12.7 °F 0.4 °F 7.3 °F 79% 30.19 in 2.5 mi North 9.2 mph - N/A Snow Light Snow
1:55 PM 13.1 °F -2.6 °F 8.1 °F 80% 30.18 in 2.0 mi NNE 15.0 mph - N/A Snow Light Snow
2:15 PM 12.9 °F -2.2 °F 7.7 °F 80% 30.18 in 2.0 mi NNE 13.8 mph - N/A Snow Light Snow
2:35 PM 13.1 °F -2.6 °F 8.4 °F 82% 30.17 in 2.5 mi NNE 15.0 mph - N/A Snow Light Snow
2:55 PM 13.5 °F -2.7 °F 8.8 °F 82% 30.17 in 2.5 mi NNE 16.1 mph - N/A Snow Light Snow
3:15 PM 14.0 °F -0.8 °F 9.5 °F 82% 30.17 in 2.5 mi North 13.8 mph - N/A Snow Light Snow
3:35 PM 14.0 °F 0.5 °F 9.5 °F 82% 30.18 in 2.5 mi North 11.5 mph - N/A Snow Light Snow
3:55 PM 14.4 °F 0.9 °F 9.9 °F 82% 30.18 in 3.0 mi North 11.5 mph - N/A Snow Light Snow
4:15 PM 14.5 °F 0.5 °F 10.2 °F 83% 30.18 in 3.0 mi North 12.7 mph - N/A Snow Light Snow
4:35 PM 14.7 °F 0.1 °F 10.4 °F 83% 30.18 in 3.0 mi NNE 13.8 mph - N/A Snow Light Snow
4:55 PM 14.7 °F 1.4 °F 10.4 °F 83% 30.18 in 4.0 mi North 11.5 mph - N/A Snow Light Snow
5:15 PM 14.7 °F 0.7 °F 10.4 °F 83% 30.19 in 3.0 mi North 12.7 mph - N/A Snow Light Snow
5:35 PM 14.7 °F 0.1 °F 10.4 °F 83% 30.20 in 2.5 mi North 13.8 mph - N/A Snow Light Snow
5:55 PM 14.9 °F 0.3 °F 10.8 °F 84% 30.20 in 4.0 mi North 13.8 mph - N/A Snow Light Snow
6:15 PM 14.9 °F -1.3 °F 10.8 °F 84% 30.21 in 3.0 mi North 17.3 mph - N/A Snow Light Snow
6:35 PM 15.1 °F -1.1 °F 10.9 °F 84% 30.21 in 3.0 mi North 17.3 mph - N/A Snow Light Snow
6:55 PM 14.9 °F -0.8 °F 10.8 °F 84% 30.22 in 2.5 mi North 16.1 mph - N/A Snow Light Snow
7:15 PM 14.9 °F -0.8 °F 10.6 °F 83% 30.23 in 4.0 mi North 16.1 mph - N/A Snow Light Snow
7:35 PM 14.9 °F -0.8 °F 10.4 °F 82% 30.23 in 7.0 mi North 16.1 mph 24.2 mph N/A   Overcast
7:55 PM 14.7 °F 0.1 °F 10.0 °F 82% 30.23 in 10.0 mi North 13.8 mph - N/A   Overcast
8:15 PM 14.9 °F -0.8 °F 10.2 °F 82% 30.23 in 10.0 mi North 16.1 mph 19.6 mph N/A   Overcast
8:35 PM 14.9 °F 0.3 °F 9.9 °F 80% 30.24 in 10.0 mi North 13.8 mph - N/A   Overcast
8:55 PM 14.5 °F -0.7 °F 8.8 °F 78% 30.24 in 10.0 mi North 15.0 mph - N/A   Overcast
9:15 PM 13.3 °F -2.9 °F 7.3 °F 77% 30.24 in 10.0 mi North 16.1 mph - N/A   Overcast
9:35 PM 12.9 °F -3.4 °F 6.8 °F 77% 30.25 in 10.0 mi North 16.1 mph - N/A   Overcast
9:55 PM 12.6 °F -4.4 °F 6.1 °F 75% 30.24 in 10.0 mi North 17.3 mph - N/A   Overcast
10:15 PM 12.2 °F -3.7 °F 5.7 °F 75% 30.24 in 10.0 mi North 15.0 mph - N/A   Overcast
10:35 PM 12.0 °F -3.4 °F 5.4 °F 75% 30.24 in 10.0 mi North 13.8 mph 20.7 mph N/A   Overcast
10:55 PM 12.0 °F -3.4 °F 5.0 °F 73% 30.24 in 10.0 mi North 13.8 mph - N/A   Overcast
11:15 PM 11.8 °F -4.8 °F 5.0 °F 74% 30.24 in 10.0 mi North 16.1 mph - N/A   Overcast
11:35 PM 11.8 °F -4.8 °F 5.0 °F 74% 30.24 in 10.0 mi North 16.1 mph - N/A   Overcast
11:55 PM 11.8 °F -4.8 °F 5.0 °F 74% 30.25 in 10.0 mi North 16.1 mph - N/A   Overcast